Weather History for KOEB - August, 2013

Change the Weather History Date:

Monday, August 26, 2013

  Actual Average (KJYM) Record (KJYM)
Temperature  
Mean Temperature 75 °F -  
Max Temperature 86 °F 80 °F 96 °F (1948)
Min Temperature 64 °F 56 °F 40 °F (1984)
Cooling Degree Days 10    
Growing Degree Days 25 (Base 50)    
Moisture  
Dew Point 66 °F    
Average Humidity 74    
Maximum Humidity 88    
Minimum Humidity 57    
Precipitation  
Precipitation 0.00 in - - ()
Sea Level Pressure  
Sea Level Pressure 30.12 in    
Wind  
Wind Speed 7 mph (WSW)    
Max Wind Speed 14 mph    
Max Gust Speed 17 mph    
Visibility 10 miles    
Events      
Averages and records for this station are not official NWS values.
T = Trace of Precipitation, MM = Missing Value Source: NWS Daily Summary

Daily Weather History Graph

Daily Weather History Graph

Search for Another Location

Airport or City:

Trip Planner

Search our weather history database for the weather conditions in past years. The results will help you decide how hot, cold, wet, or windy it might be!

Date:

Astronomy

Aug. 26, 2013 Rise Set
Actual Time 6:59 AM EDT 8:23 PM EDT
Civil Twilight 6:30 AM EDT 8:52 PM EDT
Nautical Twilight 5:55 AM EDT 9:27 PM EDT
Astronomical Twilight 5:18 AM EDT 10:03 PM EDT
Moon 11:26 PM EDT (8/26) 1:07 PM EDT (8/26)
Length of Visible Light 14h 21m
Length of Day
13h 23m
Waning Gibbous, 67% of the Moon is Illuminated
Aug 26
Waning Gibbous
Aug 28
Last Quarter
Sep 5
New
Sep 12
First Quarter
Sep 19
Full

Hourly Weather History & Observations

Time (EDT) Temp. Heat Index Dew Point Humidity Pressure Visibility Wind Dir Wind Speed Gust Speed Precip Events Conditions
12:14 AM 70.9 °F - 62.6 °F 75% 30.21 in 10.0 mi SW 5.8 mph - N/A   Clear
12:35 AM 70.5 °F - 62.6 °F 76% 30.21 in 10.0 mi SW 5.8 mph - N/A   Clear
12:55 AM 70.0 °F - 62.6 °F 77% 30.21 in 10.0 mi SW 5.8 mph - N/A   Clear
1:15 AM 69.6 °F - 62.6 °F 78% 30.20 in 10.0 mi SW 5.8 mph - N/A   Clear
1:35 AM 68.7 °F - 62.2 °F 80% 30.20 in 10.0 mi SW 4.6 mph - N/A   Clear
1:54 AM 68.4 °F - 62.1 °F 80% 30.19 in 10.0 mi SW 4.6 mph - N/A   Clear
2:15 AM 68.2 °F - 62.1 °F 81% 30.18 in 10.0 mi SW 5.8 mph - N/A   Clear
2:35 AM 68.2 °F - 62.1 °F 81% 30.17 in 10.0 mi SW 4.6 mph - N/A   Clear
2:55 AM 67.5 °F - 61.9 °F 82% 30.16 in 10.0 mi SW 4.6 mph - N/A   Clear
3:15 AM 67.3 °F - 61.9 °F 83% 30.16 in 10.0 mi SW 4.6 mph - N/A   Clear
3:35 AM 66.9 °F - 62.1 °F 84% 30.16 in 10.0 mi SW 3.5 mph - N/A   Clear
3:55 AM 66.0 °F - 61.7 °F 86% 30.17 in 10.0 mi WSW 3.5 mph - N/A   Clear
4:15 AM 65.8 °F - 61.7 °F 86% 30.17 in 10.0 mi SW 3.5 mph - N/A   Clear
4:35 AM 65.7 °F - 61.5 °F 86% 30.18 in 10.0 mi WSW 3.5 mph - N/A   Clear
4:55 AM 64.8 °F - 61.2 °F 88% 30.18 in 10.0 mi SW 4.6 mph - N/A   Clear
5:15 AM 65.5 °F - 61.3 °F 86% 30.17 in 10.0 mi SW 5.8 mph - N/A   Clear
5:35 AM 65.5 °F - 61.2 °F 86% 30.16 in 10.0 mi SW 5.8 mph - N/A   Clear
5:55 AM 65.3 °F - 61.2 °F 86% 30.16 in 10.0 mi SW 5.8 mph - N/A   Clear
6:15 AM 65.1 °F - 61.0 °F 86% 30.16 in 10.0 mi SW 5.8 mph - N/A   Clear
6:35 AM 64.8 °F - 61.0 °F 88% 30.17 in 10.0 mi SW 5.8 mph - N/A   Clear
6:55 AM 64.8 °F - 61.0 °F 88% 30.17 in 10.0 mi SW 4.6 mph - N/A   Clear
7:14 AM 64.6 °F - 60.8 °F 88% 30.18 in 10.0 mi SW 4.6 mph - N/A   Clear
7:35 AM 65.5 °F - 61.0 °F 85% 30.18 in 10.0 mi SW 4.6 mph - N/A   Clear
7:55 AM 66.2 °F - 61.3 °F 84% 30.19 in 10.0 mi SW 5.8 mph - N/A   Clear
8:15 AM 66.9 °F - 61.5 °F 83% 30.18 in 10.0 mi SW 5.8 mph - N/A   Clear
8:35 AM 67.3 °F - 61.7 °F 82% 30.19 in 10.0 mi SW 5.8 mph - N/A   Clear
8:54 AM 68.4 °F - 62.1 °F 80% 30.18 in 10.0 mi SW 5.8 mph - N/A   Clear
9:15 AM 70.7 °F - 62.4 °F 75% 30.18 in 10.0 mi WSW 6.9 mph - N/A   Clear
9:35 AM 72.1 °F - 62.8 °F 72% 30.18 in 10.0 mi WSW 9.2 mph - N/A   Clear
9:54 AM 73.6 °F - 63.1 °F 70% 30.17 in 10.0 mi WSW 8.1 mph - N/A   Clear
10:15 AM 75.9 °F - 63.9 °F 66% 30.18 in 10.0 mi West 9.2 mph - N/A   Clear
10:35 AM 76.3 °F - 63.9 °F 65% 30.18 in 10.0 mi West 6.9 mph - N/A   Clear
10:55 AM 77.0 °F - 64.6 °F 65% 30.18 in 10.0 mi WSW 6.9 mph - N/A   Clear
11:15 AM 77.4 °F - 64.8 °F 65% 30.17 in 10.0 mi West 8.1 mph - N/A   Clear
11:34 AM 79.7 °F - 66.2 °F 63% 30.17 in 10.0 mi West 10.4 mph - N/A   Clear
11:55 AM 80.1 °F 82.1 °F 65.8 °F 62% 30.16 in 10.0 mi WSW 8.1 mph - N/A   Clear
12:15 PM 81.3 °F 83.6 °F 66.7 °F 61% 30.16 in 10.0 mi WSW 9.2 mph - N/A   Clear
12:35 PM 82.2 °F 84.7 °F 67.1 °F 60% 30.15 in 10.0 mi WSW 8.1 mph - N/A   Clear
12:55 PM 82.2 °F 84.7 °F 66.9 °F 60% 30.14 in 10.0 mi West 10.4 mph - N/A   Clear
1:14 PM 81.5 °F 83.9 °F 66.9 °F 61% 30.13 in 10.0 mi WSW 8.1 mph - N/A   Clear
1:35 PM 83.1 °F 86.1 °F 68.0 °F 60% 30.12 in 10.0 mi WSW 10.4 mph - N/A   Mostly Cloudy
1:55 PM 82.8 °F 85.5 °F 67.6 °F 60% 30.11 in 10.0 mi West 13.8 mph - N/A   Scattered Clouds
2:14 PM 85.3 °F 88.8 °F 68.5 °F 57% 30.11 in 10.0 mi WSW 11.5 mph 16.1 mph N/A   Clear
2:35 PM 84.2 °F 87.9 °F 68.7 °F 60% 30.10 in 10.0 mi West 13.8 mph - N/A   Clear
2:55 PM 83.3 °F 86.9 °F 69.1 °F 62% 30.08 in 10.0 mi WSW 10.4 mph - N/A   Clear
3:15 PM 82.6 °F 86.1 °F 69.4 °F 64% 30.07 in 10.0 mi WSW 10.4 mph - N/A   Clear
3:35 PM 82.9 °F 86.7 °F 69.8 °F 64% 30.06 in 10.0 mi SW 10.4 mph - N/A   Clear
3:55 PM 82.9 °F 87.0 °F 70.2 °F 65% 30.06 in 10.0 mi WSW 8.1 mph - N/A   Clear
4:15 PM 83.3 °F 87.6 °F 70.5 °F 65% 30.05 in 10.0 mi WSW 5.8 mph - N/A   Clear
4:35 PM 83.7 °F 88.0 °F 70.5 °F 64% 30.05 in 10.0 mi WSW 10.4 mph - N/A   Clear
4:55 PM 83.7 °F 88.6 °F 71.2 °F 66% 30.04 in 10.0 mi West 8.1 mph - N/A   Clear
5:15 PM 86.4 °F 92.2 °F 71.2 °F 61% 30.05 in 10.0 mi WSW 6.9 mph - N/A   Clear
5:35 PM 86.2 °F 92.2 °F 71.6 °F 62% 30.04 in 10.0 mi WSW 6.9 mph - N/A   Scattered Clouds
5:54 PM 84.2 °F 89.3 °F 71.1 °F 65% 30.05 in 10.0 mi WSW 11.5 mph - N/A   Scattered Clouds
6:15 PM 82.9 °F 87.5 °F 70.9 °F 67% 30.05 in 10.0 mi WSW 10.4 mph 17.3 mph N/A   Clear
6:35 PM 82.4 °F 87.2 °F 71.8 °F 70% 30.05 in 10.0 mi WSW 6.9 mph - N/A   Clear
6:54 PM 82.4 °F 87.2 °F 71.6 °F 70% 30.05 in 10.0 mi WSW 6.9 mph - N/A   Clear
7:15 PM 81.7 °F 86.0 °F 71.6 °F 71% 30.04 in 10.0 mi WSW 6.9 mph - N/A   Scattered Clouds
7:34 PM 82.2 °F 86.6 °F 71.1 °F 69% 30.04 in 10.0 mi WSW 9.2 mph - N/A   Mostly Cloudy
7:55 PM 80.6 °F 84.2 °F 70.9 °F 72% 30.04 in 10.0 mi SW 5.8 mph - N/A   Scattered Clouds
8:15 PM 79.2 °F - 71.1 °F 76% 30.04 in 10.0 mi WSW 5.8 mph - N/A   Mostly Cloudy
8:35 PM 78.1 °F - 70.7 °F 78% 30.04 in 10.0 mi SW 5.8 mph - N/A   Overcast
8:55 PM 77.0 °F - 70.5 °F 80% 30.04 in 10.0 mi SW 6.9 mph - N/A   Scattered Clouds
9:14 PM 76.8 °F - 70.3 °F 80% 30.04 in 10.0 mi SW 5.8 mph - N/A   Clear
9:35 PM 76.3 °F - 70.3 °F 82% 30.03 in 10.0 mi SW 9.2 mph - N/A   Clear
9:55 PM 76.3 °F - 70.3 °F 82% 30.04 in 10.0 mi SW 8.1 mph - N/A   Clear
10:14 PM 75.9 °F - 70.2 °F 82% 30.03 in 10.0 mi SW 8.1 mph - N/A   Clear
10:35 PM 75.9 °F - 69.8 °F 81% 30.03 in 10.0 mi WSW 8.1 mph - N/A   Clear
10:55 PM 75.9 °F - 69.1 °F 79% 30.04 in 10.0 mi WSW 9.2 mph - N/A   Clear
11:14 PM 76.1 °F - 68.9 °F 78% 30.03 in 10.0 mi WSW 9.2 mph 16.1 mph N/A   Scattered Clouds
11:35 PM 75.4 °F - 68.9 °F 80% 30.03 in 10.0 mi WSW 8.1 mph - N/A   Scattered Clouds
11:55 PM 74.5 °F - 68.9 °F 83% 30.02 in 10.0 mi WSW 6.9 mph - N/A   Clear